Temp
-2 -2 -2 -2 -2 -2 -3 -3 -3 -3 -3 -2 -2 -2 -2 -2 -3 -3 -3 -3 -4 -4 -4 -4 -5 -4 -4 -3 -3 -2 -1 -1 -0 2 3 5 5 6
-2 -2 -2 -2 -3 -3 -4 -3 -3 -3 -3 -3 -3 -3 -3 -3 -3 -4 -4 -5 -5 -4 -5 -4 -4 -4 -4 -3 -3 -2 -2 -2 -1 0 2 3 4 5
-3 -3 -3 -3 -4 -4 -3 -3 -3 -3 -4 -4 -4 -4 -4 -5 -5 -5 -5 -5 -5 -5 -5 -5 -5 -5 -5 -4 -3 -3 -2 -2 -1 -1 1 2 3 4
-3 -4 -4 -4 -4 -4 -3 -4 -4 -4 -4 -4 -4 -5 -6 -6 -6 -6 -6 -6 -6 -5 -5 -6 -6 -6 -5 -5 -4 -3 -3 -3 -2 -1 -1 1 1 3
-4 -4 -4 -4 -4 -4 -5 -5 -5 -6 -6 -6 -6 -7 -7 -7 -7 -7 -7 -7 -6 -6 -6 -5 -5 -5 -6 -5 -4 -4 -3 -3 -2 -2 -1 -2 -0 1
-5 -5 -5 -5 -6 -7 -8 -8 -7 -7 -7 -7 -7 -7 -7 -8 -7 -7 -7 -7 -7 -6 -6 -6 -6 -6 -6 -5 -4 -4 -4 -3 -3 -2 -1 -1 -2 -1
-5 -5 -5 -6 -7 -8 -9 -9 -9 -9 -9 -9 -9 -9 -8 -8 -8 -7 -8 -7 -7 -7 -7 -6 -6 -6 -5 -6 -5 -4 -4 -4 -3 -2 -2 -2 -2 -2
-5 -6 -6 -7 -7 -8 -9 -10 -10 -11 -10 -10 -9 -9 -9 -8 -8 -8 -8 -8 -8 -7 -7 -7 -7 -6 -6 -5 -6 -5 -5 -5 -4 -3 -3 -3 -3 -3
-6 -7 -7 -7 -8 -8 -9 -10 -10 -10 -10 -10 -10 -9 -9 -9 -9 -9 -9 -9 -8 -8 -8 -7 -7 -7 -7 -6 -6 -6 -6 -5 -5 -4 -3 -3 -3 -4
-7 -7 -8 -8 -9 -9 -10 -11 -11 -10 -10 -10 -10 -10 -10 -10 -10 -10 -9 -9 -9 -8 -8 -7 -7 -7 -7 -7 -6 -6 -6 -5 -5 -5 -4 -3 -3 -4
-8 -8 -8 -9 -10 -10 -10 -12 -11 -11 -10 -11 -11 -11 -11 -10 -10 -10 -9 -9 -8 -8 -8 -8 -7 -7 -7 -7 -6 -6 -6 -6 -5 -5 -5 -5 -3 -3
-8 -8 -9 -9 -10 -10 -10 -12 -12 -11 -12 -12 -11 -10 -10 -10 -10 -9 -9 -9 -8 -8 -8 -8 -7 -7 -7 -6 -6 -6 -7 -6 -5 -5 -5 -5 -5 -4
-9 -9 -9 -10 -9 -10 -10 -11 -12 -12 -12 -12 -11 -11 -11 -10 -10 -10 -10 -9 -9 -9 -8 -8 -8 -7 -7 -7 -6 -6 -6 -6 -6 -5 -5 -5 -5 -5
-10 -10 -10 -9 -9 -9 -10 -11 -11 -12 -12 -12 -11 -11 -11 -11 -11 -10 -10 -9 -9 -9 -9 -8 -8 -8 -7 -7 -6 -6 -6 -6 -6 -6 -6 -5 -5 -5
-10 -10 -9 -9 -9 -10 -12 -11 -11 -12 -13 -12 -12 -12 -11 -11 -11 -10 -9 -9 -8 -8 -8 -8 -8 -8 -8 -7 -7 -6 -6 -6 -6 -6 -6 -6 -6 -5
-10 -10 -9 -10 -11 -11 -11 -11 -12 -12 -13 -12 -12 -12 -12 -11 -11 -11 -10 -9 -8 -7 -7 -8 -8 -8 -8 -8 -7 -7 -6 -6 -6 -6 -6 -6 -6 -6
-10 -10 -11 -10 -10 -10 -11 -11 -11 -12 -12 -13 -12 -12 -12 -12 -11 -11 -11 -10 -9 -9 -8 -8 -8 -7 -7 -8 -7 -7 -6 -6 -6 -6 -6 -6 -6 -6
-10 -11 -10 -10 -10 -11 -11 -11 -11 -12 -12 -13 -13 -12 -12 -13 -12 -11 -11 -11 -10 -9 -9 -9 -8 -8 -7 -7 -7 -7 -6 -6 -7 -7 -7 -7 -7 -6
-10 -11 -10 -10 -10 -11 -11 -11 -11 -12 -12 -13 -13 -13 -13 -13 -13 -12 -11 -11 -11 -10 -10 -9 -9 -8 -8 -6 -7 -7 -7 -7 -7 -7 -7 -7 -7 -6
-11 -10 -10 -10 -10 -10 -10 -11 -12 -13 -13 -13 -14 -13 -13 -13 -13 -12 -12 -12 -12 -11 -10 -10 -9 -10 -10 -10 -9 -8 -8 -8 -8 -7 -7 -7 -7 -7
-10 -10 -9 -10 -10 -10 -11 -12 -13 -13 -13 -13 -14 -14 -14 -13 -13 -13 -13 -13 -12 -11 -11 -11 -11 -10 -10 -9 -8 -8 -8 -8 -8 -8 -8 -8 -7 -8
-9 -10 -10 -10 -10 -11 -11 -12 -13 -13 -13 -13 -13 -14 -14 -14 -13 -13 -13 -13 -13 -13 -12 -11 -11 -10 -10 -9 -9 -8 -8 -8 -9 -9 -8 -8 -8 -7
-9 -9 -10 -10 -10 -11 -12 -12 -12 -12 -13 -13 -14 -14 -14 -14 -14 -14 -13 -13 -13 -13 -13 -12 -11 -10 -10 -10 -9 -9 -9 -9 -9 -9 -9 -9 -9 -8
Height
1509 1508 1507 1506 1505 1503 1502 1500 1497 1489 1484 1483 1481 1480 1477 1474 1471 1468 1465 1462 1459 1456 1455 1452 1451 1449 1448 1446 1444 1442 1440 1437 1436 1436 1435 1438 1436 1441
1506 1504 1503 1502 1501 1499 1497 1495 1492 1487 1479 1479 1475 1473 1470 1467 1465 1461 1458 1453 1451 1450 1448 1445 1443 1442 1441 1440 1439 1437 1435 1434 1431 1430 1432 1432 1435 1434
1501 1499 1499 1498 1496 1495 1493 1490 1486 1482 1476 1471 1469 1467 1463 1460 1457 1455 1452 1448 1445 1442 1441 1437 1436 1435 1435 1433 1432 1431 1430 1429 1427 1425 1426 1426 1428 1431
1497 1496 1495 1494 1492 1490 1487 1484 1480 1477 1473 1466 1463 1460 1458 1455 1451 1448 1445 1442 1438 1436 1434 1430 1429 1429 1428 1427 1426 1425 1424 1424 1424 1422 1419 1419 1422 1425
1495 1493 1492 1490 1488 1485 1482 1478 1475 1471 1468 1463 1456 1455 1452 1449 1445 1442 1439 1435 1433 1430 1427 1425 1423 1422 1421 1420 1419 1419 1418 1419 1420 1419 1419 1419 1418 1419
1491 1490 1488 1485 1483 1479 1475 1472 1469 1465 1462 1458 1453 1450 1447 1444 1441 1437 1433 1430 1427 1425 1421 1419 1417 1415 1415 1414 1413 1413 1413 1414 1415 1415 1415 1415 1416 1416
1488 1486 1484 1480 1477 1472 1469 1466 1464 1460 1457 1454 1450 1446 1443 1439 1436 1432 1428 1425 1422 1420 1417 1414 1413 1411 1410 1409 1408 1408 1408 1409 1410 1411 1412 1413 1415 1416
1484 1481 1479 1476 1474 1469 1465 1460 1459 1456 1453 1450 1445 1442 1438 1436 1432 1428 1424 1421 1418 1417 1413 1409 1408 1406 1406 1407 1402 1404 1405 1405 1406 1408 1410 1412 1413 1414
1480 1477 1475 1473 1469 1465 1461 1457 1454 1451 1448 1445 1440 1438 1434 1430 1428 1423 1421 1418 1414 1412 1410 1406 1405 1402 1402 1400 1400 1402 1402 1403 1404 1405 1407 1410 1412 1413
1476 1474 1471 1469 1465 1459 1455 1451 1448 1445 1443 1440 1436 1433 1429 1426 1423 1420 1417 1413 1410 1407 1406 1402 1401 1398 1398 1397 1397 1397 1398 1399 1401 1403 1404 1406 1409 1412
1471 1470 1467 1464 1460 1455 1450 1447 1444 1440 1438 1434 1431 1427 1423 1420 1418 1415 1411 1409 1405 1402 1401 1398 1395 1395 1394 1392 1392 1393 1394 1394 1396 1399 1402 1405 1406 1409
1468 1466 1462 1458 1454 1450 1446 1442 1439 1437 1433 1428 1426 1423 1419 1416 1414 1411 1408 1406 1401 1399 1398 1396 1394 1393 1391 1388 1388 1389 1389 1390 1391 1393 1396 1400 1404 1408
1463 1462 1461 1454 1451 1446 1442 1439 1436 1432 1427 1425 1423 1419 1416 1413 1410 1408 1405 1403 1400 1397 1395 1394 1393 1392 1390 1388 1386 1386 1386 1387 1387 1389 1392 1396 1400 1403
1458 1457 1454 1450 1446 1443 1439 1436 1434 1430 1427 1424 1421 1417 1414 1411 1408 1404 1402 1399 1396 1394 1392 1392 1390 1390 1389 1387 1386 1386 1385 1386 1386 1388 1389 1392 1396 1401
1453 1451 1448 1445 1442 1439 1437 1434 1431 1430 1426 1423 1420 1416 1412 1409 1406 1403 1399 1396 1392 1388 1388 1388 1388 1388 1387 1386 1385 1384 1385 1385 1386 1387 1388 1390 1392 1396
1449 1449 1445 1443 1440 1438 1435 1434 1432 1429 1425 1422 1418 1414 1411 1408 1405 1402 1398 1394 1389 1385 1385 1386 1385 1386 1385 1385 1385 1384 1384 1385 1384 1385 1387 1388 1390 1393
1446 1444 1443 1442 1439 1437 1435 1433 1430 1428 1425 1420 1417 1414 1410 1407 1404 1401 1398 1395 1392 1389 1387 1386 1384 1383 1383 1383 1384 1383 1383 1383 1383 1384 1386 1386 1387 1390
1441 1440 1439 1438 1436 1434 1433 1431 1428 1426 1422 1418 1416 1413 1410 1406 1403 1401 1398 1395 1393 1391 1389 1387 1385 1382 1382 1381 1382 1382 1380 1382 1382 1384 1385 1386 1387 1389
1435 1436 1435 1434 1432 1431 1430 1428 1426 1423 1419 1417 1414 1412 1409 1406 1403 1400 1398 1395 1393 1391 1390 1388 1386 1384 1381 1373 1381 1381 1382 1382 1383 1384 1385 1386 1387 1387
1431 1431 1431 1430 1428 1428 1426 1425 1422 1420 1418 1415 1412 1410 1408 1405 1403 1400 1398 1395 1393 1391 1390 1388 1387 1384 1384 1384 1382 1382 1382 1382 1383 1384 1384 1385 1386 1387
1426 1426 1426 1425 1424 1423 1422 1420 1418 1416 1415 1412 1411 1409 1407 1404 1403 1400 1398 1395 1393 1391 1389 1388 1386 1384 1383 1382 1382 1381 1381 1382 1382 1383 1384 1385 1385 1386
1420 1420 1420 1420 1419 1418 1417 1416 1414 1413 1412 1411 1409 1407 1405 1403 1401 1399 1397 1395 1393 1391 1389 1387 1385 1384 1383 1383 1382 1381 1380 1381 1382 1382 1383 1384 1385 1385
1413 1413 1414 1413 1413 1412 1411 1411 1410 1409 1408 1407 1405 1404 1403 1401 1400 1398 1396 1394 1393 1390 1388 1386 1385 1384 1383 1382 1382 1381 1381 1381 1381 1382 1383 1383 1384 1385
Wind_Speed
17 20 16 13 15 16 17 18 24 29 31 31 31 30 29 28 28 28 29 31 32 35 37 38 36 32 30 29 27 26 23 24 23 25 27 29 26 34
18 18 14 15 15 15 17 22 26 30 35 32 33 32 31 30 29 30 29 31 31 31 32 30 29 27 28 29 28 27 26 22 24 24 25 16 21 26
18 14 15 14 15 17 22 26 28 29 33 35 35 34 32 31 30 30 29 29 31 31 29 30 29 28 27 27 27 26 26 21 20 22 26 18 16 15
11 12 13 14 18 22 25 26 28 29 31 35 34 33 31 28 28 29 28 26 27 27 28 26 23 24 28 29 28 24 24 20 16 19 20 21 18 21
11 12 15 18 22 22 23 24 25 27 29 31 32 30 28 26 28 27 26 26 24 26 27 29 29 27 25 24 27 23 23 20 17 14 16 14 17 30
12 15 18 19 19 19 22 22 21 23 24 25 26 26 25 25 24 25 25 21 21 21 22 22 24 22 21 21 20 20 21 20 18 15 14 14 12 16
16 16 16 18 26 25 21 20 19 20 20 21 23 25 25 25 24 26 27 25 22 22 22 22 22 17 18 20 14 14 19 19 18 17 15 14 14 16
15 15 16 17 16 22 19 24 25 19 22 24 27 26 26 26 25 26 23 24 25 18 19 21 20 19 16 14 10 12 14 15 15 19 18 13 9 15
13 15 15 14 18 17 18 22 21 22 23 24 25 24 26 22 25 26 22 25 24 22 19 22 18 18 14 15 14 13 18 19 17 15 19 17 13 10
13 14 14 15 17 24 25 20 19 19 19 19 21 24 25 26 25 24 25 28 26 21 20 25 21 22 19 20 21 22 19 20 21 16 15 19 18 14
12 13 14 15 18 23 24 18 19 18 16 20 22 22 24 21 18 18 23 20 21 21 19 18 23 18 17 18 18 19 20 19 22 21 17 15 18 19
12 12 16 22 25 24 21 17 17 16 20 21 18 19 19 18 16 17 17 21 18 17 11 14 12 10 12 16 15 15 19 20 20 23 23 19 16 17
12 11 10 22 22 20 18 16 17 23 18 16 17 17 16 15 14 14 16 18 19 20 15 12 13 11 13 15 5 8 9 13 14 20 24 26 22 18
13 12 15 19 18 16 15 15 17 14 15 15 15 15 15 15 15 15 15 16 17 19 16 15 14 11 13 13 9 6 7 8 9 9 16 23 28 26
12 13 16 17 16 14 13 16 15 13 13 13 14 14 15 16 14 16 15 15 16 15 14 14 13 11 12 12 13 5 5 7 8 10 9 17 20 29
11 14 20 14 15 15 14 11 12 12 13 13 14 15 14 14 14 14 15 16 19 10 3 9 11 12 12 11 10 10 7 6 7 8 8 10 18 18
19 19 11 11 11 10 10 11 11 11 11 12 11 13 14 14 14 13 13 13 14 15 13 10 10 7 11 11 12 10 8 8 7 7 6 5 13 18
18 13 12 13 12 11 10 11 10 11 11 11 11 11 13 13 13 13 12 11 12 12 12 13 13 16 9 12 12 8 4 2 2 3 3 6 5 12
18 12 13 13 13 11 10 10 10 11 14 10 11 11 12 12 12 12 12 12 11 11 11 12 13 12 13 5 2 4 2 4 2 1 4 6 6 9
17 15 14 13 13 11 11 10 10 10 9 10 9 10 10 11 11 11 10 12 12 11 11 9 9 9 8 8 5 4 4 6 3 1 2 6 8 6
18 18 17 16 15 13 13 13 11 9 10 10 8 9 10 9 9 10 10 11 10 10 10 10 12 14 10 6 5 7 3 6 5 7 7 4 3 6
23 21 20 18 16 16 15 14 12 10 9 10 9 8 8 8 8 9 10 10 10 10 9 11 10 8 4 7 9 7 6 2 2 3 4 6 5 4
22 21 21 20 19 19 17 14 13 12 10 10 8 7 8 6 8 8 9 9 10 10 10 9 9 8 7 6 7 7 3 3 2 2 1 4 6 9
Wind_Direction
286 290 279 283 287 283 283 290 292 295 297 299 299 299 299 297 294 293 293 291 286 284 285 283 284 283 278 277 285 291 297 290 273 263 254 251 252 233
291 285 281 286 283 284 290 293 291 294 295 296 298 300 300 296 294 294 291 288 287 285 289 287 281 283 285 277 275 281 288 305 288 257 247 235 255 247
280 283 285 284 286 292 292 294 293 292 293 296 296 297 298 298 295 293 290 289 287 284 284 284 269 270 279 285 274 274 278 285 300 291 236 219 225 223
287 287 288 291 292 295 295 294 294 294 295 296 296 298 297 296 294 294 291 287 285 283 279 283 267 272 282 284 276 269 272 276 289 291 284 228 240 211
293 294 296 298 297 296 296 294 293 292 292 294 296 297 296 297 297 294 294 292 286 284 282 277 287 283 279 285 270 266 266 266 264 280 292 266 223 227
297 300 298 297 295 291 300 299 299 297 295 294 293 296 297 298 296 295 294 294 291 289 291 282 277 282 271 292 277 270 263 258 253 263 271 279 253 243
298 299 299 293 295 303 310 304 303 301 297 296 295 296 297 300 299 297 296 296 292 287 285 284 280 275 265 266 268 282 259 254 246 246 258 273 254 258
297 300 303 304 300 302 311 305 306 299 295 294 293 295 297 297 297 295 297 300 296 293 289 284 281 270 269 269 260 249 263 262 248 240 242 253 246 254
301 304 306 306 309 297 297 303 303 299 293 292 293 291 297 303 300 305 302 302 293 293 294 291 283 280 269 278 270 262 260 258 259 242 238 238 239 229
302 304 306 305 306 298 306 308 306 302 299 295 291 293 294 295 293 289 289 290 289 290 281 280 276 273 275 264 261 264 261 258 244 241 238 237 236 235
303 305 296 303 292 307 315 313 311 309 306 302 297 301 307 306 301 293 296 296 294 290 283 274 278 265 260 262 256 253 259 260 239 235 235 230 232 234
304 303 307 304 308 316 316 315 312 312 306 309 311 309 307 306 306 296 289 290 298 301 295 273 283 267 276 267 256 247 254 261 241 233 233 235 230 227
300 303 298 291 309 318 317 317 311 317 323 321 313 312 314 315 312 292 290 291 294 295 292 278 285 290 276 290 243 239 239 249 247 233 232 231 232 229
294 296 290 308 317 320 321 324 323 335 331 317 317 317 319 322 322 319 317 306 290 281 284 291 278 273 275 281 284 257 245 238 242 240 235 232 231 229
295 299 311 318 325 332 320 329 344 326 323 325 320 319 321 322 326 327 323 320 317 284 264 260 261 263 271 283 290 296 252 253 244 237 233 229 236 230
316 298 305 323 330 332 333 322 314 314 322 326 322 324 327 328 328 325 329 336 349 16 270 262 261 258 260 270 278 283 274 254 236 227 230 237 221 224
283 296 309 301 306 312 311 311 315 313 320 319 328 330 330 329 330 333 333 335 345 355 6 1 356 279 245 244 273 267 268 253 237 223 213 232 212 211
281 284 287 290 298 301 304 308 310 313 311 326 328 331 331 333 332 336 336 336 338 342 343 345 344 355 255 246 245 266 356 158 88 171 212 220 216 219
276 273 274 279 285 292 294 296 302 302 320 321 323 327 330 334 343 338 339 341 331 331 335 335 340 342 341 120 179 252 102 105 45 53 222 217 213 227
266 261 263 271 278 281 282 285 287 296 308 312 322 321 329 334 338 339 341 337 335 336 331 332 334 326 334 328 334 318 288 258 230 206 182 241 229 243
259 264 266 266 269 268 272 275 282 289 291 310 316 318 322 328 331 332 338 337 348 334 331 327 314 298 307 303 296 280 274 308 250 214 223 189 215 217
259 262 256 258 258 261 266 271 277 289 296 294 294 309 313 319 325 329 332 337 337 334 329 323 329 338 312 274 286 303 292 306 236 245 245 213 207 196
262 266 264 261 263 266 264 256 261 259 265 274 286 293 300 318 315 324 326 332 333 337 334 340 335 339 338 328 305 333 325 311 334 336 286 241 226 232